Time,B instrument,Bx,By,Bz,sigma B,Ion instrument,Status,Tp_par,Tp_perp,carrot,r_sun,clat,clong,earth_he_angle,n_p,vp_x,vp_y,vp_z,vth_p_par,vth_p_perp
1979-09-21 00:00:19,-1,nan,nan,nan,nan,1,3,nan,nan,1686,0.81714916,-6.9971724,0.14587402,150.84119,nan,390.103,19.1122,-34.1421,nan,nan
1979-09-21 00:01:15,2,-4.86,-6.252,6.502,0.158215,1,1,37469.3,36477.2,1685,0.81709754,-6.906497,0.2359314,150.93904,6.84283,382.056,29.9156,-21.5261,24.8711,24.5396
1979-09-21 00:01:40,2,-4.928,-6.144,6.496,0.177719,1,1,37987.8,24805.8,1685,0.81709754,-6.906497,0.23202515,150.93904,6.42858,388.047,17.0278,-31.5072,25.0426,20.2365
1979-09-21 00:03:01,2,-4.814,-6.564,6.202,0.201851,1,1,23505.5,27114.0,1685,0.8170867,-6.9065485,0.2203064,150.93906,6.87946,390.194,22.9143,-30.3185,19.6989,21.157
1979-09-21 00:04:22,2,-4.96,-6.675,5.7675,0.281503,1,1,31335.0,31776.3,1685,0.81708127,-6.9065742,0.20861816,150.93907,6.59992,390.032,18.4364,-28.7598,22.7443,22.9039
1979-09-21 00:05:43,2,-3.978,-7.64,5.356,0.384708,1,1,31852.5,32975.4,1685,0.81707585,-6.906601,0.19689941,150.93907,7.19888,383.276,29.6626,-23.5927,22.9314,23.332
1979-09-21 00:07:04,2,-4.2475,-7.5125,5.37,0.313189,1,1,39800.0,23938.8,1685,0.817065,-6.9066525,0.18518066,150.93909,6.79602,381.801,21.1358,-23.3015,25.633,19.8796
1979-09-21 00:08:25,2,-2.946,-8.52,4.346,0.332518,1,1,28145.9,27359.9,1685,0.81705958,-6.9066782,0.16958618,150.9391,7.60799,376.06,31.046,-18.6912,21.5559,21.2528
1979-09-21 00:09:46,2,-5.0825,-6.75,6.3275,0.227019,1,1,39792.0,27958.9,1685,0.81705415,-6.9067039,0.15786743,150.9391,6.21448,388.598,18.237,-29.9385,25.6304,21.4841
1979-09-21 00:11:07,2,-2.696,-8.96,4.338,0.224767,1,1,30528.1,29862.3,1685,0.8170433,-6.9067564,0.14614868,150.93912,6.7255,378.539,32.5362,-19.7001,22.4495,22.2034
1979-09-21 00:12:28,2,-2.46,-9.2075,3.9225,0.189176,1,1,55954.9,28859.4,1685,0.81703788,-6.9067822,0.13446045,150.93913,6.34319,379.012,28.063,-22.2257,30.3932,21.8274
1979-09-21 00:13:49,2,-2.33,-9.18,4.29,0.140143,1,1,31014.3,30167.6,1685,0.81703246,-6.9068079,0.1227417,150.93913,6.66162,378.344,30.0466,-22.3073,22.6276,22.3166
1979-09-21 00:16:31,2,-2.16167,-9.16,4.15667,0.181758,1,1,34971.4,35073.6,1685,0.81701612,-6.9068861,0.095428467,150.93916,6.61388,378.126,30.2209,-19.2749,24.0278,24.0629
1979-09-21 00:17:52,2,-2.4,-9.2125,4.1775,0.208297,1,1,56028.1,32593.1,1685,0.8170107,-6.9069118,0.083709717,150.93918,6.15131,381.553,26.0636,-19.5174,30.4131,23.1964
1979-09-21 00:19:13,2,-2.398,-9.208,4.394,0.121721,1,1,40961.5,38851.9,1685,0.81699985,-6.9069643,0.072021484,150.93919,6.39853,380.239,29.6171,-20.7423,26.0043,25.3259
1979-09-21 00:20:34,2,-2.718,-8.978,4.736,0.248145,1,1,55489.5,28235.1,1685,0.81699443,-6.9069901,0.060302734,150.93919,6.56498,381.559,26.2228,-23.0604,30.2666,21.59
1979-09-21 00:22:51,-1,nan,nan,nan,nan,1,3,nan,nan,1685,0.81698358,-6.9070415,0.040771484,150.93921,nan,383.57,22.8792,-22.5929,nan,nan
1979-09-21 00:44:27,-1,nan,nan,nan,nan,1,3,nan,nan,1686,0.81686419,-6.9076128,359.84174,150.93939,nan,387.098,28.1272,-26.335,nan,nan
1979-09-21 01:06:03,-1,nan,nan,nan,nan,1,3,nan,nan,1686,0.81674474,-6.9081841,359.6427,150.93958,nan,395.166,23.0516,-18.8471,nan,nan
1979-09-21 02:10:51,-1,nan,nan,nan,nan,1,3,nan,nan,1686,0.81639689,-6.9098444,359.04953,150.94014,nan,403.19,17.0837,-25.6478,nan,nan
1979-09-21 03:30:03,-1,nan,nan,nan,nan,1,4,nan,nan,1686,0.81596154,-6.911912,358.32373,150.9409,nan,nan,nan,nan,nan,nan
1979-09-21 03:51:39,-1,nan,nan,nan,nan,1,3,nan,nan,1686,0.81584716,-6.9124546,358.12473,150.94112,nan,415.234,25.2514,-17.4469,nan,nan
1979-09-21 04:13:15,-1,nan,nan,nan,nan,1,3,nan,nan,1686,0.81572729,-6.913022,357.92963,150.94133,nan,414.289,26.9666,-25.1179,nan,nan
1979-09-21 04:42:01,-1,nan,nan,nan,nan,1,4,nan,nan,1687,0.81561726,-7.0036044,357.56644,150.84378,nan,nan,nan,nan,nan,nan
1979-09-21 05:03:39,-1,nan,nan,nan,nan,1,3,nan,nan,1686,0.81545472,-6.9143114,357.4653,150.94185,nan,398.198,22.5024,-20.603,nan,nan
1979-09-21 05:25:15,-1,nan,nan,nan,nan,1,3,nan,nan,1686,0.81533462,-6.9148779,357.2702,150.94208,nan,401.042,20.7687,-16.7901,nan,nan
1979-09-21 05:46:51,-1,nan,nan,nan,nan,1,3,nan,nan,1686,0.81522,-6.9154196,357.07123,150.94231,nan,410.05,6.9457,-6.16206,nan,nan
1979-09-21 06:08:27,-1,nan,nan,nan,nan,1,3,nan,nan,1686,0.8150999,-6.9159861,356.87225,150.94257,nan,391.16,-19.8479,2.73576,nan,nan
1979-09-21 06:30:03,-1,nan,nan,nan,nan,1,3,nan,nan,1686,0.81497973,-6.9165525,356.67328,150.94281,nan,460.152,9.32335,34.112,nan,nan
1979-09-21 06:51:39,-1,nan,nan,nan,nan,1,3,nan,nan,1686,0.81486499,-6.9170933,356.47821,150.94305,nan,441.154,30.6083,11.7525,nan,nan
1979-09-21 07:13:15,-1,nan,nan,nan,nan,1,3,nan,nan,1686,0.81474477,-6.9176579,356.27927,150.94331,nan,426.725,32.1415,16.5427,nan,nan
1979-09-21 07:34:51,-1,nan,nan,nan,nan,1,3,nan,nan,1686,0.81462991,-6.9181976,356.08029,150.94356,nan,436.55,28.3224,14.9688,nan,nan
1979-09-21 07:56:27,-1,nan,nan,nan,nan,1,3,nan,nan,1686,0.81450963,-6.9187622,355.88522,150.94382,nan,439.785,21.0094,29.1047,nan,nan
1979-09-21 08:18:03,-1,nan,nan,nan,nan,1,3,nan,nan,1686,0.81438923,-6.9193258,355.68628,150.94409,nan,431.58,28.5699,17.6562,nan,nan
1979-09-21 08:39:39,-1,nan,nan,nan,nan,1,3,nan,nan,1686,0.81427425,-6.9198637,355.48734,150.94435,nan,437.634,30.607,9.31336,nan,nan
1979-09-21 09:01:15,-1,nan,nan,nan,nan,1,3,nan,nan,1686,0.81415385,-6.9204264,355.2923,150.94463,nan,431.284,19.9893,18.2166,nan,nan
1979-09-21 12:55:01,-1,nan,nan,nan,nan,1,4,nan,nan,1686,0.81286943,-6.926404,353.15103,150.94789,nan,nan,nan,nan,nan,nan
1979-09-21 12:55:26,-1,nan,nan,nan,nan,1,3,nan,nan,1686,0.81286943,-6.926404,353.14713,150.94789,nan,403.169,39.6477,-0.837594,nan,nan
1979-09-21 12:56:07,-1,nan,nan,nan,nan,1,3,nan,nan,1686,0.81286389,-6.9264297,353.13931,150.94791,nan,404.055,36.1473,2.18013,nan,nan
1979-09-21 12:56:47,-1,nan,nan,nan,nan,1,3,nan,nan,1686,0.81286389,-6.9264297,353.13541,150.94791,nan,399.311,38.0112,4.96214,nan,nan
1979-09-21 12:57:28,-1,nan,nan,nan,nan,1,3,nan,nan,1686,0.8128584,-6.9264545,353.12762,150.94792,nan,400.703,39.8813,0.514552,nan,nan
1979-09-21 12:58:09,-1,nan,nan,nan,nan,1,3,nan,nan,1686,0.81285292,-6.9264803,353.11981,150.94794,nan,405.916,34.9518,5.02538,nan,nan
1979-09-21 12:58:49,2,-4.1,-8.17,-7.694,2.10372,1,1,98260.0,195057.0,1686,0.81285292,-6.9264803,353.11591,150.94794,9.31449,416.773,28.9889,6.32234,40.276,56.7464
1979-09-21 12:59:30,2,-2.08,-9.026,-7.634,0.537334,1,1,101967.0,175522.0,1686,0.81284744,-6.926506,353.10812,150.94795,9.03881,390.608,41.9413,-2.34551,41.0287,53.8299
1979-09-21 13:00:10,2,-2.806,-7.86,-8.834,0.854311,1,1,102874.0,206065.0,1686,0.81284195,-6.9265318,353.10422,150.94797,9.97128,396.715,31.9677,7.34666,41.2109,58.3257
1979-09-21 13:00:51,2,-2.468,-8.466,-7.998,0.443008,1,1,121465.0,158078.0,1686,0.81284189,-6.9265318,353.09641,150.94797,8.86345,394.74,38.976,-0.310675,44.7799,51.085
1979-09-21 13:01:31,2,-2.336,-8.724,-7.89,0.469774,1,1,108092.0,166242.0,1686,0.81283641,-6.9265566,353.08862,150.94798,8.9102,397.894,35.182,7.66567,42.2431,52.3876
1979-09-21 13:02:12,2,-3.642,-7.812,-8.782,0.40061,1,1,93149.5,148623.0,1686,0.81283092,-6.9265823,353.08472,150.948,9.08618,396.823,36.5338,6.53965,39.2146,49.5337
1979-09-21 13:02:52,2,-3.12,-8.452,-8.22,0.759537,1,1,84761.8,153912.0,1686,0.81283092,-6.9265823,353.0769,150.948,9.25771,398.954,38.0177,9.16427,37.4074,50.4074
1979-09-21 13:03:33,2,-2.822,-9.12,-7.592,0.79155,1,1,92209.0,139336.0,1686,0.81282544,-6.9266081,353.07303,150.94801,8.49586,394.941,43.2908,8.04638,39.0162,47.9611
1979-09-21 13:04:13,-1,nan,nan,nan,nan,1,4,nan,nan,1686,0.8128199,-6.9266329,353.06522,150.94803,nan,nan,nan,nan,nan,nan
1979-09-21 13:04:54,2,-1.62,-8.994,-7.752,2.18701,1,1,93379.5,155384.0,1686,0.8128199,-6.9266329,353.06131,150.94803,9.48552,398.379,41.7744,6.81034,39.263,50.6479
1979-09-21 13:05:34,2,0.426,-10.672,-5.126,1.26068,1,1,68939.5,137970.0,1686,0.81281441,-6.9266586,353.05353,150.94804,8.5622,393.766,45.8217,1.53301,33.7359,47.7254
1979-09-21 13:06:15,2,-1.14,-10.01,-6.398,2.36703,1,1,75412.7,127359.0,1686,0.81280893,-6.9266844,353.04572,150.94806,9.26095,388.944,45.6021,-3.43675,35.2842,45.8535
1979-09-21 13:06:55,2,-3.572,-8.88,-8.104,0.569807,1,1,57101.7,123275.0,1686,0.81280887,-6.9266844,353.04181,150.94806,8.14541,400.282,39.7757,9.55988,30.7031,45.1124
1979-09-21 13:07:36,2,-3.93,-9.386,-7.606,0.37144,1,1,52407.5,124047.0,1686,0.81280339,-6.9267092,353.03403,150.94807,8.27166,405.657,40.5175,0.322661,29.414,45.2534
1979-09-21 13:08:16,2,-3.256,-9.778,-7.014,0.766671,1,1,72775.4,156116.0,1686,0.8127979,-6.9267349,353.03012,150.94809,9.95083,402.396,47.8493,0.964676,34.6617,50.7671
1979-09-21 13:08:57,2,-3.976,-10.06,-7.156,0.302338,1,1,62232.6,113974.0,1686,0.8127979,-6.9267349,353.02231,150.94809,8.27055,402.071,41.1778,-0.897324,32.0529,43.3772
1979-09-21 13:09:37,2,-2.964,-8.374,-9.166,0.648746,1,1,63347.8,130051.0,1686,0.81279242,-6.9267607,353.01453,150.9481,8.65072,400.072,36.964,8.07714,32.3388,46.3356
1979-09-21 13:10:18,2,-2.888,-8.53,-9.218,0.540289,1,1,63131.3,133839.0,1686,0.81278688,-6.9267855,353.01062,150.94812,8.85394,401.415,36.6999,7.93027,32.2835,47.0055
1979-09-21 13:10:58,2,-2.8825,-8.275,-9.5825,0.444368,1,1,58057.6,142379.0,1686,0.81278688,-6.9267855,353.00281,150.94812,9.08766,402.447,36.963,8.88559,30.959,48.482
1979-09-21 13:11:39,2,-3.872,-8.28,-9.624,0.240998,1,1,53859.1,120019.0,1686,0.81278139,-6.9268112,352.99893,150.94814,8.35019,405.285,33.7197,9.19726,29.8186,44.5127
1979-09-21 13:12:19,2,-3.958,-7.726,-10.08,0.259923,1,1,49083.4,126649.0,1686,0.81277591,-6.926837,352.99112,150.94815,8.78745,401.257,31.7879,13.0787,28.4659,45.7255
1979-09-21 13:13:00,2,-3.424,-3.94,-11.12,0.808396,1,1,81062.6,133528.0,1686,0.81277037,-6.9268618,352.98724,150.94817,10.1084,406.014,28.9205,20.8059,36.5821,46.951
1979-09-21 13:13:40,2,-4.388,-6.84,-9.632,0.47945,1,1,58264.2,125685.0,1686,0.81277037,-6.9268618,352.97943,150.94817,8.39775,401.59,33.6282,11.5364,31.0141,45.5513
1979-09-21 13:14:21,2,-4.26,-6.554,-9.84,0.241379,1,1,67906.7,129589.0,1686,0.81276488,-6.9268875,352.97162,150.94818,9.35051,404.542,31.6575,14.1862,33.4822,46.2532
1979-09-21 13:15:01,2,-4.674,-6.714,-9.284,0.192229,1,1,78225.9,158698.0,1686,0.8127594,-6.9269133,352.96774,150.9482,9.36096,399.91,33.796,12.9705,35.9363,51.1852
1979-09-21 13:15:42,2,-5.868,-5.126,-9.418,0.154324,1,1,78314.1,144561.0,1686,0.81275934,-6.9269133,352.95993,150.9482,9.34942,409.209,28.4145,12.0264,35.9565,48.8521
1979-09-21 13:16:22,2,-6.075,-4.76,-9.31833,0.645837,1,1,69922.7,147859.0,1686,0.81275386,-6.9269381,352.95602,150.94821,8.235,406.559,27.1564,15.9004,33.9756,49.4063
1979-09-21 13:17:03,2,-7.292,-4.058,-8.676,0.463828,1,1,71970.6,151976.0,1686,0.81274837,-6.9269638,352.94824,150.94823,9.20835,417.031,23.8904,8.31283,34.4695,50.0893
1979-09-21 13:17:43,2,-7.446,-2.944,-9.112,0.606452,1,1,71436.9,145431.0,1686,0.81274837,-6.9269638,352.94043,150.94823,8.99648,421.154,12.5182,8.10167,34.3415,48.9989
1979-09-21 13:18:24,2,-7.752,-3.48,-8.43,2.22177,1,1,80567.4,156285.0,1686,0.81274289,-6.9269896,352.93652,150.94824,9.20844,427.819,-10.6742,13.0702,36.4701,50.7944
1979-09-21 13:19:04,2,-7.54,-4.64833,-8.19167,0.540828,1,1,74771.6,142451.0,1686,0.81273735,-6.9270144,352.92874,150.94826,8.65022,421.858,20.6736,4.52124,35.1339,48.4943
1979-09-21 13:19:45,2,-7.46,-4.99333,-8.18,0.496611,1,1,67300.7,147958.0,1686,0.81273735,-6.9270153,352.92484,150.94826,8.86353,417.478,28.1123,4.87533,33.3325,49.4227
1979-09-21 13:20:25,2,-7.428,-5.062,-8.068,0.153909,1,1,79256.6,154560.0,1686,0.81273186,-6.9270401,352.91702,150.94827,9.05727,419.557,23.7751,6.90479,36.1723,50.5133
1979-09-21 13:21:06,2,-7.382,-5.432,-7.89,0.346168,1,1,75476.0,153443.0,1686,0.81272638,-6.9270658,352.91315,150.94829,8.54451,420.383,28.3964,-0.16511,35.299,50.3306
1979-09-21 13:21:46,2,-7.41833,-5.185,-8.085,0.279995,1,1,82900.2,148675.0,1686,0.81272632,-6.9270658,352.90533,150.94829,9.12906,420.912,26.1944,2.91043,36.9944,49.5424
1979-09-21 13:22:27,2,-7.63,-5.194,-8.092,0.30692,1,1,75413.5,141282.0,1686,0.81272084,-6.9270916,352.89752,150.9483,9.08284,424.007,25.029,3.44065,35.2844,48.2949
1979-09-21 13:23:07,2,-7.812,-5.01,-7.926,0.488426,1,1,74885.0,146231.0,1686,0.81271535,-6.9271164,352.89365,150.94832,8.92351,422.801,24.9761,4.66351,35.1605,49.1335
1979-09-21 13:23:48,2,-7.34,-5.048,-8.532,0.421606,1,1,69666.1,136082.0,1686,0.81271535,-6.9271164,352.88583,150.94832,9.25991,427.122,23.0366,9.64486,33.9132,47.3979
1979-09-21 13:24:28,2,-4.058,-7.45,-8.38,2.12855,1,1,81779.1,162003.0,1686,0.81270987,-6.9271421,352.88193,150.94833,10.0908,419.729,22.8275,7.0203,36.7434,51.7153
1979-09-21 13:25:09,2,-3.932,-7.624,-8.676,0.408392,1,1,74113.7,139442.0,1686,0.81270432,-6.9271679,352.87415,150.94835,9.26211,405.205,38.3937,9.49817,34.979,47.9794
1979-09-21 13:25:49,2,-3.988,-7.59,-8.728,0.479783,1,1,76354.2,148712.0,1686,0.81270432,-6.9271679,352.86633,150.94835,9.91251,406.701,34.0539,10.8609,35.5038,49.5485
1979-09-21 13:26:30,2,-3.884,-8.07,-8.772,0.554292,1,1,63668.5,143272.0,1686,0.81269884,-6.9271927,352.86243,150.94836,9.22426,402.001,38.3003,6.20231,32.4205,48.6339
1979-09-21 13:27:10,2,-4.80833,-7.32,-8.55833,0.461188,1,1,75392.2,153009.0,1686,0.81269336,-6.9272184,352.85464,150.94838,9.82669,413.529,33.7605,6.35729,35.2794,50.2593
1979-09-21 13:27:51,2,-5.476,-6.726,-8.512,0.990224,1,1,59001.0,142050.0,1686,0.8126933,-6.9272184,352.85074,150.94838,9.00677,420.332,27.4014,8.86326,31.2096,48.4259
1979-09-21 13:28:31,2,-5.132,-7.18,-8.642,1.00943,1,1,62280.4,143600.0,1686,0.81268781,-6.9272442,352.84293,150.94839,8.98089,418.428,26.9072,11.1936,32.0652,48.6895
1979-09-21 13:29:12,2,-3.214,-8.522,-8.338,0.887613,1,1,64494.5,141547.0,1686,0.81268233,-6.927269,352.83514,150.94841,8.93243,407.054,35.7175,7.88475,32.6302,48.3402
1979-09-21 13:29:52,2,-4.375,-7.82833,-8.00333,1.28936,1,1,63372.6,174812.0,1686,0.81268233,-6.927269,352.83124,150.94841,8.44669,406.757,37.255,10.2049,32.3451,53.721
1979-09-21 13:30:33,2,-3.86167,-8.50667,-6.96833,0.523275,1,1,88454.9,159719.0,1686,0.81267685,-6.9272947,352.82343,150.94843,9.01887,405.894,40.9866,1.4609,38.2137,51.3495
1979-09-21 13:31:13,2,-3.11,-8.646,-7.4,0.319662,1,1,82748.5,169382.0,1686,0.8126713,-6.9273205,352.81955,150.94844,9.39498,405.473,38.8073,4.90505,36.9605,52.88
1979-09-21 13:31:54,2,-3.632,-8.224,-7.436,0.310135,1,1,81023.4,185743.0,1686,0.8126713,-6.9273205,352.81174,150.94844,9.79432,402.403,42.5273,0.133726,36.5732,55.3751
1979-09-21 13:32:34,2,-4.452,-8.134,-6.982,0.428318,1,1,82312.3,166637.0,1686,0.81266582,-6.9273453,352.80783,150.94846,9.60514,403.886,42.6042,1.08398,36.863,52.4498
1979-09-21 13:33:15,2,-1.1975,-8.1,-8.6225,1.07633,1,1,71021.6,166483.0,1686,0.81266034,-6.927371,352.80005,150.94847,9.2018,397.062,43.3198,4.59546,34.2415,52.4255
1979-09-21 13:33:55,-1,nan,nan,nan,nan,1,4,nan,nan,1686,0.81266028,-6.927371,352.79224,150.94847,nan,nan,nan,nan,nan,nan
1979-09-21 13:34:36,2,-0.648,-7.586,-9.34,1.36311,1,1,98668.0,153765.0,1686,0.81265479,-6.9273968,352.78833,150.94849,9.02351,393.046,40.5359,11.0823,40.3595,50.3833
1979-09-21 13:35:16,2,-0.58,-7.962,-9.352,1.03767,1,1,80282.4,139599.0,1686,0.81264931,-6.9274216,352.78055,150.9485,9.31036,391.409,38.0158,10.9145,36.4056,48.0064
1979-09-21 13:35:57,2,-0.704,-8.318,-8.806,0.846371,1,1,74786.9,150931.0,1686,0.81264931,-6.9274216,352.77664,150.9485,8.92764,384.2,38.1306,7.60427,35.1375,49.9169
1979-09-21 13:36:37,2,-1.084,-8.27,-8.876,0.435807,1,1,72853.3,150686.0,1686,0.81264383,-6.9274473,352.76883,150.94852,8.8217,378.925,39.4235,10.61,34.6803,49.8763
1979-09-21 13:37:18,2,0.384,-9.006,-7.482,0.98887,1,1,84326.8,166991.0,1686,0.81263828,-6.9274731,352.76105,150.94853,9.06023,379.408,40.4453,6.24622,37.3113,52.5054
1979-09-21 13:37:58,2,-0.768,-8.876,-7.526,0.473607,1,1,91333.3,180497.0,1686,0.81263828,-6.9274731,352.75714,150.94853,10.1689,382.424,47.7714,0.128512,38.8305,54.5875
1979-09-21 13:38:39,2,-1.805,-8.52,-7.625,0.741384,1,1,84895.9,185286.0,1686,0.8126328,-6.9274979,352.74933,150.94855,9.63069,390.842,40.6752,7.36287,37.437,55.3069
1979-09-21 13:39:19,2,-2.296,-8.038,-8.036,0.279471,1,1,89821.7,159449.0,1686,0.81262732,-6.9275236,352.74545,150.94856,9.12625,393.964,42.2826,5.97789,38.5078,51.3061
1979-09-21 13:40:00,2,-3.388,-7.482,-8.504,1.60695,1,1,95605.3,194420.0,1686,0.81262177,-6.9275494,352.73764,150.94858,10.2296,385.919,38.0663,7.95411,39.7282,56.6537
1979-09-21 13:40:40,2,-3.246,-7.43,-8.966,0.378164,1,1,76789.4,171194.0,1686,0.81262177,-6.9275494,352.73373,150.94858,8.67072,389.661,36.6226,11.4089,35.6048,53.1621
1979-09-21 13:41:21,2,-5.482,-6.058,-8.862,0.738084,1,1,86579.4,176405.0,1686,0.81261629,-6.9275751,352.72595,150.94859,9.24657,402.494,33.1616,8.21812,37.8064,53.9652
1979-09-21 13:42:01,2,-5.522,-5.878,-8.544,0.80041,1,1,71618.5,191735.0,1686,0.81261081,-6.9275999,352.71814,150.94861,9.96165,402.279,33.8667,10.5951,34.3851,56.2612
1979-09-21 13:42:42,2,-5.67,-5.15,-8.91,0.427224,1,1,74425.2,185488.0,1686,0.81261075,-6.9275999,352.71423,150.94861,9.72144,407.402,24.909,14.08,35.0524,55.337
1979-09-21 13:43:22,2,-4.36333,-6.86333,-8.43167,0.541779,1,1,76869.8,162420.0,1686,0.81260526,-6.9276257,352.70645,150.94862,8.9176,397.015,39.6688,8.7392,35.6234,51.7819
1979-09-21 13:44:03,2,-4.058,-5.576,-9.652,0.404643,1,1,74536.1,156002.0,1686,0.81259978,-6.9276514,352.70255,150.94864,8.61892,401.032,30.7255,14.5614,35.0785,50.7485
1979-09-21 13:44:43,2,-5.252,-5.326,-8.922,0.388968,1,1,77236.7,189028.0,1686,0.81259978,-6.9276514,352.69473,150.94864,9.19238,407.874,25.9956,15.2612,35.7084,55.8626
1979-09-21 13:45:24,2,-5.134,-5.41,-9.056,0.134937,1,1,74043.8,156391.0,1686,0.81259429,-6.9276762,352.68695,150.94865,8.46225,406.362,26.5622,15.0766,34.9625,50.8117
1979-09-21 13:46:04,2,-7.00333,-3.84833,-8.64667,1.29211,1,1,74466.6,150831.0,1686,0.81258875,-6.927702,352.68304,150.94867,8.44045,408.98,24.3814,14.5771,35.0622,49.9002
1979-09-21 13:46:45,2,-4.07,-5.746,-9.466,1.36989,1,1,75183.3,167761.0,1686,0.81258875,-6.927702,352.67523,150.94867,9.96253,409.009,23.6046,14.8614,35.2305,52.6263
1979-09-21 13:47:25,2,-0.99,-7.23,-9.966,0.39978,1,1,74617.7,141691.0,1686,0.81258327,-6.9277277,352.67136,150.94868,8.67381,391.76,30.1047,21.5492,35.0977,48.3648
1979-09-21 13:48:06,2,-0.744,-7.938,-9.448,0.373759,1,1,62681.3,143283.0,1686,0.81257778,-6.9277525,352.66354,150.9487,8.30618,387.31,39.2707,14.9067,32.1682,48.6356
1979-09-21 13:48:46,2,-2.836,-6.876,-10.012,0.499584,1,1,65079.5,144276.0,1686,0.81257772,-6.9277525,352.65964,150.9487,8.75443,396.025,33.2594,16.9236,32.7778,48.804
1979-09-21 13:49:27,2,-2.8,-6.226,-10.32,0.915458,1,1,68543.4,151233.0,1686,0.81257224,-6.9277782,352.65186,150.94872,10.6199,397.471,23.7179,21.1758,33.6388,49.9667
1979-09-21 13:50:07,2,-3.918,-6.928,-9.386,0.509918,1,1,70064.9,144549.0,1686,0.81256676,-6.927804,352.64404,150.94873,8.55733,403.119,34.2787,12.8083,34.0101,48.8501
1979-09-21 13:50:48,2,-4.428,-6.552,-9.536,0.272573,1,1,76177.5,153311.0,1686,0.81256676,-6.927804,352.64014,150.94873,9.27219,416.121,25.3118,15.3471,35.4627,50.3089
1979-09-21 13:51:28,2,-4.71167,-6.71,-9.21833,0.647092,1,1,71837.8,164585.0,1686,0.81256127,-6.9278288,352.63235,150.94875,8.88298,413.903,32.3374,10.1394,34.4377,52.1258
1979-09-21 13:52:09,2,-4.212,-6.256,-9.9,0.731382,1,1,53941.8,154207.0,1686,0.81255573,-6.9278545,352.62845,150.94876,8.60398,409.269,27.4183,15.6706,29.8415,50.4557
1979-09-21 13:52:49,2,-3.634,-7.454,-9.256,0.34472,1,1,61149.4,144013.0,1686,0.81255573,-6.9278545,352.62064,150.94876,8.7421,407.483,35.7758,7.67056,31.7727,48.7594
1979-09-21 13:53:30,2,-5.058,-5.7,-9.028,1.3338,1,1,94494.9,177413.0,1686,0.81255025,-6.9278803,352.61285,150.94878,9.10057,408.518,35.0134,7.98721,39.4968,54.1191
1979-09-21 13:54:10,2,-5.82833,-4.975,-8.79167,0.519185,1,1,83233.2,180683.0,1686,0.81254476,-6.9279051,352.60895,150.94879,9.05219,420.468,22.6774,9.13542,37.0686,54.6156
1979-09-21 13:54:51,2,-6.758,-4.644,-8.434,0.605131,1,1,82588.7,182343.0,1686,0.8125447,-6.9279051,352.60114,150.94879,9.07401,422.067,18.9594,8.09913,36.9248,54.8659
1979-09-21 13:55:31,2,-7.57,-4.578,-7.274,0.506754,1,1,86215.7,175830.0,1686,0.81253922,-6.9279308,352.59726,150.94881,8.69117,424.98,25.2187,-0.69606,37.7269,53.8771
1979-09-21 13:56:12,2,-6.316,-6.25,-7.662,0.535985,1,1,75169.6,173539.0,1686,0.81253374,-6.9279566,352.58945,150.94882,8.74401,424.885,29.288,1.67155,35.2273,53.525
1979-09-21 13:56:52,2,-6.54,-5.2275,-8.04,0.5164,1,1,84171.1,182626.0,1686,0.81253374,-6.9279566,352.58554,150.94882,8.91886,421.275,27.8316,4.43582,37.2769,54.9084
1979-09-21 13:57:33,2,-3.122,-7.67,-8.648,1.76582,1,1,74186.4,154873.0,1686,0.81252825,-6.9279814,352.57776,150.94884,8.91575,415.385,31.4188,10.1658,34.9961,50.5644
1979-09-21 13:58:13,2,0.078,-8.78,-8.272,0.325257,1,1,71928.0,156848.0,1686,0.81252271,-6.9280071,352.56995,150.94885,8.58271,397.821,40.2851,8.19184,34.4593,50.8859
1979-09-21 13:58:54,2,1.37,-9.082,-6.526,0.628045,1,1,81233.3,173211.0,1686,0.81252271,-6.9280071,352.56604,150.94885,9.324,386.473,43.1952,3.31584,36.6206,53.4744
1979-09-21 13:59:34,2,1.338,-8.964,-7.316,0.448402,1,1,63518.0,141097.0,1686,0.81251723,-6.9280329,352.55826,150.94887,9.0469,382.668,40.3916,7.84154,32.3822,48.2633
1979-09-21 14:00:15,2,0.245,-8.82,-7.76,0.235956,1,1,67616.4,140271.0,1686,0.81251174,-6.9280586,352.55435,150.94888,8.0298,391.915,37.2099,10.7701,33.4106,48.1219
1979-09-21 14:00:55,2,-0.912,-9.062,-7.462,0.520046,1,1,60407.7,138935.0,1686,0.81251168,-6.9280586,352.54654,150.94888,7.89216,388.743,42.3651,7.02923,31.5794,47.8921
1979-09-21 14:01:36,2,-3.926,-7.748,-8.02,0.708124,1,1,56423.5,145716.0,1686,0.8125062,-6.9280834,352.53876,150.9489,8.55242,415.867,29.3103,12.7889,30.5202,49.0468
1979-09-21 14:02:16,2,-2.35,-8.44667,-7.70833,1.46516,1,1,67434.9,152628.0,1686,0.81250072,-6.9281092,352.53485,150.94891,8.84094,407.534,29.6655,16.5072,33.3657,50.1967
1979-09-21 14:02:56,2,-3.982,-6.382,-8.916,0.644404,1,1,54170.8,138424.0,1686,0.81250072,-6.9281092,352.52704,150.94891,7.6521,416.363,21.1839,21.5917,29.9048,47.8039
1979-09-21 14:23:40,-1,nan,nan,nan,nan,1,3,nan,nan,1686,0.81238502,-6.9286423,352.33987,150.94923,nan,404.014,41.3994,-0.461105,nan,nan
1979-09-21 14:24:21,2,-1.776,-7.678,-9.418,0.209514,1,1,96679.9,161086.0,1686,0.81237948,-6.9286671,352.33206,150.94925,10.8927,404.149,30.8742,7.83939,39.9508,51.5688
1979-09-21 14:25:01,2,-1.764,-7.502,-9.448,0.259415,1,1,80588.6,158879.0,1686,0.812374,-6.9286928,352.32428,150.94926,10.1655,405.408,32.2754,8.54692,36.4749,51.2143
1979-09-21 14:25:42,2,-1.812,-7.132,-9.46,0.330866,1,1,82986.0,159718.0,1686,0.812374,-6.9286928,352.32037,150.94926,10.5034,404.136,28.1262,10.6049,37.0135,51.3493
1979-09-21 14:26:23,2,-2.082,-7.51,-9.238,0.631911,1,1,81063.9,159019.0,1686,0.81236845,-6.9287186,352.31256,150.94928,10.0801,410.21,22.8796,14.8394,36.5824,51.2369
1979-09-21 14:27:04,2,-2.25,-7.572,-9.29,0.473599,1,1,92415.0,166039.0,1686,0.81236297,-6.9287434,352.30869,150.9493,10.089,407.054,34.6172,5.48697,39.0597,52.3555
1979-09-21 14:27:44,2,-1.9,-6.89,-9.91,0.194628,1,1,66954.6,149733.0,1686,0.81236297,-6.9287434,352.30087,150.9493,9.47228,408.442,26.838,11.7269,33.2467,49.7184
1979-09-21 14:28:25,2,-1.968,-6.054,-10.19,0.191416,1,1,91667.3,182732.0,1686,0.81235743,-6.9287691,352.29306,150.94931,11.0035,402.475,27.1601,11.0841,38.9014,54.9244
1979-09-21 14:29:05,2,-1.326,-7.024,-9.51,0.403742,1,1,83650.6,163768.0,1686,0.81235194,-6.9287939,352.28918,150.94933,10.5034,402.441,28.2012,11.2786,37.1614,51.9963
1979-09-21 14:29:46,2,-1.435,-6.88833,-9.71333,0.309507,1,1,99945.0,179234.0,1686,0.81235194,-6.9287939,352.28137,150.94933,11.4409,400.377,28.4221,10.3072,40.6199,54.3962
1979-09-21 14:30:26,2,-1.342,-6.984,-9.734,0.260814,1,1,71897.2,151527.0,1686,0.81234646,-6.9288197,352.2775,150.94936,9.9098,406.544,27.5133,11.116,34.4519,50.0152